{"data":{"norad_id":67343,"epoch":"2026-09-19T13:09:25.766496Z","epoch_age_seconds":157592,"freshness":"FRESH","line1":"1 67343U 26003K   26262.54821489  .00010403  00000+0  38689-3 0  9997","line2":"2 67343  42.9992 212.1177 0001562 265.0199  95.0474 15.27592383 38473","mean_motion":15.27592383,"eccentricity":0.0001562,"inclination_deg":42.9992,"raan_deg":212.1177,"arg_perigee_deg":265.0199,"mean_anomaly_deg":95.0474,"bstar":0.00038689,"rev_number":3847,"period_min":94.265984566643,"perigee_km":481.94030565689,"apogee_km":484.08372860984,"semimajor_km":6861.1490171334,"source":"CELESTRAK","updated_at":"2026-09-20T09:00:43.512819Z"}}